Location: Star Dogged Moon Observatory
(29.7756°N, 82.0783°W)
Time: 01:36:42
(UTC-04:00)

Amateur Radio Satellites - All Passes

Search period start: 02 July 2016 01:06
Search period end: 03 July 2016 01:06
Location: Star Dogged Moon Observatory, 29.7756°N, 82.0783°W

Satellite Date Start Highest point End Downlink Frequencies (MHz)
Time Altitude Azimuth
QB50P1 02 Jul 01:07:56 01:12:10 67° 284° (WNW) 01:16:25 145.935-145.965
ESTCUBE 1 02 Jul 01:08:14 01:11:42 22° 264° (W) 01:15:12 437.505/2401.250
POPSAT HIP 1 02 Jul 01:11:32 01:15:45 62° 284° (WNW) 01:19:58 437.405
DUCHIFAT 1 02 Jul 01:21:35 01:25:42 50° 285° (WNW) 01:29:48 145.980
BEESAT 3 02 Jul 01:23:56 01:27:16 27° 112° (ESE) 01:30:39 437.485
QB50P2 02 Jul 01:25:04 01:29:01 38° 286° (WNW) 01:32:59 145.880/145.840
POLYITAN 1 02 Jul 01:27:43 01:31:40 37° 286° (WNW) 01:35:36 437.675
50 SAT 02 Jul 01:29:30 01:31:18 13° 265° (W) 01:33:06 437.505
Cosmos 2504 02 Jul 01:32:47 01:41:22 55° 81° (E) 01:49:25 435.465 / 435.565
CUBEBUG 1 02 Jul 01:34:59 01:37:33 15° 265° (W) 01:40:06 437.445
PCSat 02 Jul 01:35:47 01:41:07 63° 111° (ESE) 01:46:28 145.827
TISAT 1 02 Jul 01:37:09 01:41:03 41° 74° (ENE) 01:44:58 437.305
SO-50 02 Jul 01:46:09 01:50:29 42° 247° (WSW) 01:54:40 436.795
O/OREOS (USA 219) 02 Jul 01:50:48 01:54:29 25° 102° (ESE) 01:58:09 437.305
Cosmos 2491 02 Jul 01:52:52 02:01:21 53° 279° (W) 02:09:51 435.465 / 435.565
Oscar 19 02 Jul 01:54:28 01:58:02 19° 96° (E) 02:01:37 437.125/150
VELOX 1 02 Jul 01:55:18 01:55:40 10° 266° (W) 01:56:03 145.980
BUGSAT 1 02 Jul 02:02:03 02:05:52 37° 286° (WNW) 02:09:43 437.445
SPROUT 02 Jul 02:07:47 02:10:27 16° 265° (W) 02:13:09 437.525
BEESAT 2 02 Jul 02:08:45 02:12:35 52° 114° (ESE) 02:16:27 435.950
SWISSCUBE 02 Jul 02:15:26 02:19:09 23° 70° (ENE) 02:22:52 437.505
BEESAT 02 Jul 02:39:29 02:43:52 38° 73° (ENE) 02:48:16 436.000
Gurwin Techsat 1B 02 Jul 02:41:06 02:45:21 24° 97° (E) 02:49:35 435.225
ITUPSAT 1 02 Jul 02:43:00 02:47:28 40° 73° (ENE) 02:51:57 437.325
JAS-2 02 Jul 02:47:10 02:52:03 37° 289° (WNW) 02:56:47 435.910
YUBILEINY 02 Jul 02:50:20 02:53:40 13° 280° (W) 02:57:02 435.215
BEESAT 3 02 Jul 03:02:21 03:04:56 17° 305° (NW) 03:07:32 437.485
TISAT 1 02 Jul 03:15:53 03:16:49 11° 266° (W) 03:17:46 437.305
PCSat 02 Jul 03:21:59 03:24:53 15° 306° (NW) 03:27:49 145.827
AIST 2 02 Jul 03:24:25 03:26:39 14° 108° (ESE) 03:28:53 435.215
Cosmos 2504 02 Jul 03:27:25 03:34:01 25° 277° (W) 03:40:22 435.465 / 435.565
O/OREOS (USA 219) 02 Jul 03:30:21 03:33:46 21° 295° (WNW) 03:37:11 437.305
Oscar 19 02 Jul 03:32:43 03:37:23 37° 288° (WNW) 03:42:03 437.125/150
AO-7 02 Jul 03:38:33 03:42:51 15° 94° (E) 03:47:08 29.400- 29.500
BEESAT 2 02 Jul 03:50:34 03:50:41 10° 308° (NW) 03:50:48 435.950
SWISSCUBE 02 Jul 03:52:41 03:56:44 27° 262° (W) 04:00:49 437.505
ITAMSAT 1 02 Jul 04:03:17 04:08:25 55° 101° (E) 04:13:30 435.822/435.867
KKS-1 02 Jul 04:03:51 04:07:46 32° 73° (ENE) 04:11:42 437.445
BEESAT 02 Jul 04:18:47 04:21:42 16° 265° (W) 04:24:39 436.000
Gurwin Techsat 1B 02 Jul 04:20:36 04:25:13 31° 289° (WNW) 04:29:51 435.225
MOZHAYETS 4 02 Jul 04:21:37 04:26:02 48° 75° (ENE) 04:30:30
ITUPSAT 1 02 Jul 04:22:38 04:25:22 15° 265° (W) 04:28:07 437.325
STARS 02 Jul 04:25:41 04:29:20 27° 72° (ENE) 04:32:59 437.465
AIST 1 02 Jul 04:25:51 04:29:54 42° 82° (E) 04:33:56
GONETS M04 02 Jul 04:53:09 04:59:09 20° 72° (ENE) 05:05:06
PHONESAT 2.4 02 Jul 04:57:22 05:00:25 75° 148° (SSE) 05:03:28 2401.200-2431.200
AIST 2 02 Jul 05:01:04 05:04:47 33° 301° (WNW) 05:08:32 435.215
HORYU 2 02 Jul 05:26:36 05:29:45 19° 96° (E) 05:32:54 437.375
AO-7 02 Jul 05:27:50 05:36:14 84° 287° (WNW) 05:44:35 29.400- 29.500
AO-85 02 Jul 05:39:27 05:41:12 12° 50° (NE) 05:42:54 145.980
KKS-1 02 Jul 05:41:36 05:44:20 16° 265° (W) 05:47:04 437.445
ITAMSAT 1 02 Jul 05:44:47 05:47:20 14° 294° (WNW) 05:49:53 435.822/435.867
Cosmos 2499 02 Jul 05:57:58 06:05:47 38° 77° (ENE) 06:13:02 435.465 / 435.565
CUBESAT XI-V 02 Jul 05:59:38 06:04:17 64° 76° (ENE) 06:08:55 437.345
MOZHAYETS 4 02 Jul 06:01:47 06:03:22 12° 267° (W) 06:04:58
STARS 02 Jul 06:02:33 06:05:37 19° 264° (W) 06:08:41 437.465
CUSAT 1 02 Jul 06:22:26 06:27:06 18° 89° (E) 06:31:22 437.405
PHONESAT 2.4 02 Jul 06:34:57 06:37:14 19° 343° (NNW) 06:39:32 2401.200-2431.200
ISS 02 Jul 06:37:34 06:40:21 26° 128° (SE) 06:43:08 145.825
Cubesat XI-IV 02 Jul 06:40:36 06:43:57 17° 95° (E) 06:47:16 437.490
GONETS M04 02 Jul 06:47:51 06:56:29 68° 268° (W) 07:05:10
HORYU 2 02 Jul 07:02:23 07:06:15 29° 288° (WNW) 07:10:06 437.375
NOAA 18 02 Jul 07:06:02 07:11:03 34° 99° (E) 07:16:03 137.9125
CUTE-I 02 Jul 07:12:18 07:17:15 37° 99° (E) 07:22:09 437.470
AO-85 02 Jul 07:17:52 07:21:59 47° 247° (WSW) 07:25:47 145.980
DANDE 02 Jul 07:19:19 07:26:07 29° 89° (E) 07:32:35 436.750
STRAND 1 02 Jul 07:19:19 07:23:39 28° 71° (ENE) 07:28:00 437.568
BRITE-PL 02 Jul 07:20:37 07:24:47 68° 101° (E) 07:29:08 437.365/2234.400
AO-7 02 Jul 07:23:46 07:27:45 14° 304° (NW) 07:31:44 29.400- 29.500
NOAA 15 02 Jul 07:27:05 07:32:20 77° 103° (ESE) 07:37:34 137.62
GOMX 1 02 Jul 07:33:43 07:37:47 38° 99° (E) 07:42:05 467.674
LilacSat-2 02 Jul 07:43:40 07:47:34 86° 276° (W) 07:51:26 437.200
Cosmos 2499 02 Jul 07:51:09 07:58:40 36° 274° (W) 08:05:43 435.465 / 435.565
CUSAT 1 02 Jul 08:00:59 08:08:48 70° 277° (W) 08:15:25 437.405
DOVE 4 02 Jul 08:13:26 08:17:49 49° 100° (E) 08:22:28 437.250
PHONESAT 2.4 02 Jul 08:13:36 08:14:36 11° 359° (N) 08:15:37 2401.200-2431.200
ISS 02 Jul 08:14:22 08:16:46 19° 322° (NW) 08:19:10 145.825
Cubesat XI-IV 02 Jul 08:19:02 08:24:09 45° 287° (WNW) 08:29:14 437.490
HO-68 02 Jul 08:23:10 08:28:28 22° 96° (E) 08:33:43 435.675
CANX-2 02 Jul 08:26:31 08:29:05 15° 95° (E) 08:31:37 2200.000
CINEMA 3 02 Jul 08:39:58 08:43:58 27° 97° (E) 08:48:05 145.822/145.860
SEEDS 02 Jul 08:42:27 08:44:42 14° 94° (E) 08:46:55 437.485
CUTE 1.7 + AOD 2 02 Jul 08:44:58 08:48:21 23° 96° (E) 08:51:43 437.475
NOAA 18 02 Jul 08:47:05 08:51:27 24° 292° (WNW) 08:55:48 137.9125
PRISM 02 Jul 08:51:04 08:54:47 33° 73° (ENE) 08:58:31 437.425
CUTE-I 02 Jul 08:53:01 08:56:58 21° 292° (WNW) 09:00:56 437.470
STRAND 1 02 Jul 08:58:31 09:02:42 25° 263° (W) 09:06:55 437.568
DANDE 02 Jul 09:00:26 09:08:35 53° 280° (W) 09:16:11 436.750
AAUSAT CUBESAT 2 02 Jul 09:09:31 09:12:05 16° 95° (E) 09:14:37 437.432
GOMX 1 02 Jul 09:13:26 09:15:35 14° 290° (WNW) 09:17:47 467.674
CUBEBUG 2 02 Jul 09:45:58 09:50:26 43° 99° (E) 09:54:57 437.445
COMPASS 1 02 Jul 09:46:22 09:50:31 66° 101° (E) 09:54:38 437.405
PHONESAT 2.4 02 Jul 09:49:46 09:51:59 18° 16° (NNE) 09:54:13 2401.200-2431.200
DOVE 4 02 Jul 09:53:31 09:55:08 12° 291° (WNW) 09:56:47 437.250
ZACube-1 02 Jul 09:54:54 09:58:29 22° 96° (E) 10:02:02 437.345
AUBIESAT-1 02 Jul 09:55:57 09:59:06 20° 102° (ESE) 10:02:23 437.475
Oscar 11 02 Jul 09:56:44 10:00:12 23° 96° (E) 10:03:39 145.826/435.025
ANTELSAT 02 Jul 10:00:38 10:01:55 11° 67° (ENE) 10:03:14 437.575/2403.000
CANX-2 02 Jul 10:01:10 10:04:55 30° 287° (WNW) 10:08:38 2200.000
HO-68 02 Jul 10:09:24 10:16:22 55° 289° (WNW) 10:23:19 435.675
FUNcube-1 02 Jul 10:09:43 10:13:47 31° 98° (E) 10:17:50 145.935
SEEDS 02 Jul 10:16:39 10:20:26 32° 286° (WNW) 10:24:10 437.485
CINEMA 3 02 Jul 10:17:12 10:20:55 23° 288° (WNW) 10:24:44 145.822/145.860
CUTE 1.7 + AOD 2 02 Jul 10:20:49 10:24:01 21° 289° (WNW) 10:27:12 437.475
DELFI C3 02 Jul 10:21:35 10:24:16 18° 95° (E) 10:26:58 145.870
UWE-3 02 Jul 10:24:26 10:29:06 83° 100° (E) 10:33:47 435.000/436.395/437.385
PRISM 02 Jul 10:28:03 10:30:07 13° 265° (W) 10:32:12 437.425
PCSat 02 Jul 10:31:22 10:34:27 15° 54° (NE) 10:37:29 145.827
HUMSAT D 02 Jul 10:33:50 10:35:02 11° 93° (E) 10:36:13 437.325/437.525
M-CUBED/EXP-1 PRIME 02 Jul 10:37:57 10:42:07 87° 106° (ESE) 10:46:36 437.505
AAUSAT CUBESAT 2 02 Jul 10:43:59 10:47:31 28° 287° (WNW) 10:51:02 437.432
TIGRISAT 02 Jul 10:47:54 10:51:55 41° 74° (ENE) 10:56:02 435.000
UNISAT 6 02 Jul 10:54:17 10:58:28 54° 75° (ENE) 11:02:45 437.425
BEESAT 3 02 Jul 11:23:40 11:27:23 39° 60° (ENE) 11:31:06 437.485
CUBEBUG 2 02 Jul 11:24:06 11:26:39 15° 291° (WNW) 11:29:13 437.445
PHONESAT 2.4 02 Jul 11:25:47 11:28:51 85° 210° (SSW) 11:31:55 2401.200-2431.200
RS-15 02 Jul 11:27:00 11:38:05 70° 112° (ESE) 11:49:48 29.354- 29.394
AUBIESAT-1 02 Jul 11:29:56 11:33:26 27° 291° (WNW) 11:37:07 437.475
ZACube-1 02 Jul 11:30:51 11:34:38 26° 288° (WNW) 11:38:24 437.345
Oscar 11 02 Jul 11:32:51 11:36:10 22° 289° (WNW) 11:39:27 145.826/435.025
ANTELSAT 02 Jul 11:34:00 11:38:08 46° 261° (W) 11:42:21 437.575/2403.000
FUNcube-1 02 Jul 11:46:35 11:49:44 19° 290° (WNW) 11:52:53 145.935
NANOSAT C BR1 02 Jul 11:49:09 11:52:49 30° 73° (ENE) 11:56:30 145.865
YUBILEINY 02 Jul 11:49:18 11:55:04 20° 83° (E) 12:00:51 435.215
QB50P1 02 Jul 11:54:25 11:58:17 38° 74° (ENE) 12:02:11 145.935-145.965
DELFI C3 02 Jul 11:55:53 11:59:01 23° 288° (WNW) 12:02:08 145.870
POPSAT HIP 1 02 Jul 11:57:59 12:01:55 41° 74° (ENE) 12:05:52 437.405
HUMSAT D 02 Jul 12:06:42 12:10:47 43° 285° (WNW) 12:14:50 437.325/437.525
O/OREOS (USA 219) 02 Jul 12:06:51 12:10:03 19° 64° (ENE) 12:13:15 437.305
DUCHIFAT 1 02 Jul 12:07:14 12:11:15 49° 75° (ENE) 12:15:16 145.980
BEESAT 2 02 Jul 12:09:46 12:13:46 77° 63° (ENE) 12:17:44 435.950
Cosmos 2491 02 Jul 12:10:27 12:19:01 60° 82° (E) 12:27:35 435.465 / 435.565
QB50P2 02 Jul 12:11:10 12:15:20 69° 76° (ENE) 12:19:30 145.880/145.840
VELOX 1 02 Jul 12:12:13 12:14:45 15° 95° (E) 12:17:17 145.980
PCSat 02 Jul 12:12:52 12:18:12 60° 249° (WSW) 12:23:29 145.827
POLYITAN 1 02 Jul 12:13:48 12:17:57 71° 77° (ENE) 12:22:08 437.675
JUGNU 02 Jul 12:21:00 12:24:01 14° 162° (SSE) 12:27:03 437.505
TIGRISAT 02 Jul 12:27:16 12:28:46 12° 267° (W) 12:30:16 435.000
UKube-1 02 Jul 12:30:33 12:32:52 14° 95° (E) 12:35:10 .
BUGSAT 1 02 Jul 12:45:26 12:49:23 61° 76° (ENE) 12:53:20 437.445
JAS-2 02 Jul 12:50:11 12:57:25 47° 73° (ENE) 13:04:03 435.910
AISAT 02 Jul 12:52:03 12:56:20 51° 101° (E) 13:00:37 437.250
DX 1 02 Jul 12:57:00 13:01:05 40° 100° (E) 13:05:10 434.975-435.025
50 SAT 02 Jul 13:02:15 13:05:55 81° 102° (ESE) 13:09:32 437.505
BEESAT 3 02 Jul 13:03:36 13:04:39 11° 252° (WSW) 13:05:41 437.485
ESTCUBE 1 02 Jul 13:05:33 13:09:59 63° 284° (WNW) 13:14:23 437.505/2401.250
Oscar 19 02 Jul 13:06:17 13:09:17 16° 67° (ENE) 13:12:16 437.125/150
NANOSAT C BR1 02 Jul 13:26:11 13:28:33 15° 265° (W) 13:30:56 145.865
CUBEBUG 1 02 Jul 13:27:31 13:31:43 51° 285° (WNW) 13:35:55 437.445
AIST 2 02 Jul 13:28:02 13:31:27 24° 57° (ENE) 13:34:50 435.215
TISAT 1 02 Jul 13:29:45 13:30:27 10° 94° (E) 13:31:09 437.305
QB50P1 02 Jul 13:32:36 13:34:09 12° 266° (W) 13:35:42 145.935-145.965
POPSAT HIP 1 02 Jul 13:36:51 13:37:49 11° 266° (W) 13:38:47 437.405
RS-15 02 Jul 13:41:44 13:51:24 31° 313° (NW) 14:01:34 29.354- 29.394
YUBILEINY 02 Jul 13:42:22 13:50:58 66° 277° (W) 13:59:41 435.215
O/OREOS (USA 219) 02 Jul 13:45:33 13:49:23 28° 257° (WSW) 13:53:14 437.305
VELOX 1 02 Jul 13:47:17 13:51:14 34° 287° (WNW) 13:55:11 145.980
Gurwin Techsat 1B 02 Jul 13:56:40 14:00:39 22° 69° (ENE) 14:04:39 435.225
SPROUT 02 Jul 13:57:51 14:02:05 60° 284° (WNW) 14:06:19 437.525
Cosmos 2504 02 Jul 14:02:37 14:10:21 53° 90° (E) 14:18:37 435.465 / 435.565
UKube-1 02 Jul 14:05:02 14:08:56 34° 287° (WNW) 14:12:50 .
JUGNU 02 Jul 14:07:38 14:12:30 26° 170° (S) 14:17:23 437.505
Cosmos 2491 02 Jul 14:08:52 14:15:05 22° 276° (W) 14:21:21 435.465 / 435.565
SO-50 02 Jul 14:14:50 14:18:23 20° 109° (ESE) 14:21:58 436.795
AISAT 02 Jul 14:31:29 14:32:18 10° 293° (WNW) 14:33:07 437.250
AO-7 02 Jul 14:32:59 14:36:29 13° 55° (NE) 14:40:00 29.400- 29.500
DX 1 02 Jul 14:34:56 14:36:52 13° 292° (WNW) 14:38:47 434.975-435.025
JAS-2 02 Jul 14:36:03 14:42:21 28° 263° (W) 14:48:17 435.910
Oscar 19 02 Jul 14:43:14 14:48:10 47° 260° (W) 14:53:06 437.125/150
ISS 02 Jul 14:46:02 14:48:44 23° 40° (NE) 14:51:26 145.825
BEESAT 02 Jul 14:46:47 14:49:40 16° 95° (E) 14:52:32 436.000
ITUPSAT 1 02 Jul 14:50:34 14:53:42 17° 95° (E) 14:56:48 437.325
TISAT 1 02 Jul 15:02:14 15:06:14 44° 285° (WNW) 15:10:15 437.305
AIST 2 02 Jul 15:06:36 15:09:45 21° 250° (WSW) 15:12:54 435.215
ITAMSAT 1 02 Jul 15:15:16 15:20:12 45° 73° (ENE) 15:25:10 435.822/435.867
SRMSAT 02 Jul 15:30:56 15:35:17 21° 166° (SSE) 15:39:37 437.500
Gurwin Techsat 1B 02 Jul 15:35:31 15:40:19 35° 262° (W) 15:45:09 435.225
SO-50 02 Jul 15:54:09 15:58:36 35° 302° (WNW) 16:03:04 436.795
JUGNU 02 Jul 15:55:49 16:01:05 32° 180° (S) 16:06:20 437.505
Cosmos 2504 02 Jul 15:57:31 16:04:02 26° 287° (WNW) 16:10:54 435.465 / 435.565
SWISSCUBE 02 Jul 15:58:04 16:02:49 66° 284° (WNW) 16:07:31 437.505
AO-7 02 Jul 16:19:37 16:27:56 80° 72° (ENE) 16:36:18 29.400- 29.500
ISS 02 Jul 16:22:34 16:25:03 20° 233° (SW) 16:27:32 145.825
BEESAT 02 Jul 16:23:06 16:27:31 38° 287° (WNW) 16:31:54 436.000
MOZHAYETS 4 02 Jul 16:23:38 16:26:50 18° 95° (E) 16:30:00
ITUPSAT 1 02 Jul 16:27:12 16:31:33 35° 288° (WNW) 16:35:53 437.325
AIST 1 02 Jul 16:48:53 16:52:45 33° 92° (E) 16:56:38
ITAMSAT 1 02 Jul 16:56:44 16:59:49 16° 265° (W) 17:02:53 435.822/435.867
SRMSAT 02 Jul 17:18:48 17:23:59 31° 175° (S) 17:29:09 437.500
KKS-1 02 Jul 17:36:35 17:40:55 52° 285° (WNW) 17:45:14 437.445
JUGNU 02 Jul 17:44:48 17:49:39 26° 190° (S) 17:54:31 437.505
GONETS M04 02 Jul 17:46:23 17:53:24 28° 85° (E) 18:00:23
HORYU 2 02 Jul 17:53:36 17:57:59 67° 258° (WSW) 18:02:24 437.375
STARS 02 Jul 17:56:19 18:00:42 65° 284° (WNW) 18:05:04 437.465
Cubesat XI-IV 02 Jul 17:57:17 18:00:25 16° 67° (ENE) 18:03:34 437.490
MOZHAYETS 4 02 Jul 17:59:55 18:03:58 31° 288° (WNW) 18:07:59
CUBESAT XI-V 02 Jul 18:02:52 18:06:39 25° 97° (E) 18:10:24 437.345
AO-7 02 Jul 18:16:33 18:21:15 16° 265° (W) 18:26:00 29.400- 29.500
LilacSat-2 02 Jul 18:20:43 18:23:22 18° 72° (ENE) 18:26:02 437.200
BRITE-PL 02 Jul 18:25:17 18:30:01 42° 75° (ENE) 18:34:25 437.365/2234.400
Cosmos 2499 02 Jul 18:26:04 18:33:22 35° 86° (E) 18:41:00 435.465 / 435.565
NOAA 18 02 Jul 18:26:27 18:31:24 36° 71° (ENE) 18:36:23 137.9125
RS-15 02 Jul 18:26:57 18:31:29 12° 27° (NNE) 18:36:02 29.354- 29.394
AIST 1 02 Jul 18:28:16 18:30:24 13° 284° (WNW) 18:32:31
CUTE-I 02 Jul 18:28:17 18:33:03 34° 71° (ENE) 18:37:49 437.470
GOMX 1 02 Jul 18:36:56 18:40:23 22° 73° (ENE) 18:43:42 467.674
NOAA 15 02 Jul 18:41:01 18:46:15 67° 75° (ENE) 18:51:30 137.62
CUSAT 1 02 Jul 18:45:16 18:47:56 32° 78° (ENE) 18:50:19 437.405
SRMSAT 02 Jul 19:07:36 19:12:44 30° 186° (S) 19:17:50 437.500
DOVE 4 02 Jul 19:14:10 19:17:33 23° 73° (ENE) 19:20:52 437.250
Cubesat XI-IV 02 Jul 19:34:50 19:40:00 50° 259° (W) 19:45:12 437.490
JUGNU 02 Jul 19:35:15 19:38:09 14° 199° (SSW) 19:41:01 437.505
STRAND 1 02 Jul 19:36:51 19:39:51 16° 95° (E) 19:42:50 437.568
CINEMA 3 02 Jul 19:39:32 19:39:47 10° 68° (ENE) 19:40:02 145.822/145.860
CUBESAT XI-V 02 Jul 19:40:16 19:43:51 23° 289° (WNW) 19:47:24 437.345
GONETS M04 02 Jul 19:41:25 19:49:42 48° 280° (W) 19:58:02
AO-85 02 Jul 19:45:53 19:49:48 20° 108° (ESE) 19:53:41 145.980
DANDE 02 Jul 19:50:19 19:54:08 77° 264° (W) 19:57:06 436.750
LilacSat-2 02 Jul 19:54:42 19:57:30 20° 264° (W) 20:00:19 437.200
BRITE-PL 02 Jul 20:05:44 20:08:29 15° 264° (W) 20:11:09 437.365/2234.400
NOAA 18 02 Jul 20:07:57 20:12:03 22° 263° (W) 20:16:12 137.9125
CUTE-I 02 Jul 20:08:56 20:13:02 23° 264° (W) 20:17:11 437.470
GOMX 1 02 Jul 20:14:37 20:18:20 24° 262° (W) 20:21:54 467.674
Cosmos 2499 02 Jul 20:18:35 20:26:12 40° 283° (WNW) 20:34:18 435.465 / 435.565
NOAA 15 02 Jul 20:25:30 20:26:20 10° 267° (W) 20:27:11 137.62
HO-68 02 Jul 20:30:41 20:37:41 62° 72° (ENE) 20:44:45 435.675
COMPASS 1 02 Jul 20:31:52 20:34:58 20° 71° (ENE) 20:38:05 437.405
RS-15 02 Jul 20:36:26 20:48:14 47° 55° (NE) 20:59:46 29.354- 29.394
CUBEBUG 2 02 Jul 20:39:44 20:42:16 16° 70° (ENE) 20:44:51 437.445
CANX-2 02 Jul 20:47:00 20:51:16 84° 81° (E) 20:55:35 2200.000
DOVE 4 02 Jul 20:52:00 20:55:10 20° 263° (W) 20:58:15 437.250
SRMSAT 02 Jul 20:57:16 21:01:24 19° 195° (SSW) 21:05:31 437.500
SEEDS 02 Jul 21:01:30 21:05:44 74° 76° (ENE) 21:09:59 437.485
FUNcube-1 02 Jul 21:01:59 21:03:08 11° 68° (ENE) 21:04:18 145.935
CUTE 1.7 + AOD 2 02 Jul 21:06:08 21:10:21 65° 259° (W) 21:14:38 437.475
CINEMA 3 02 Jul 21:12:31 21:16:28 44° 261° (W) 21:20:27 145.822/145.860
STRAND 1 02 Jul 21:14:16 21:19:09 44° 287° (WNW) 21:23:59 437.568
UWE-3 02 Jul 21:15:59 21:19:36 29° 73° (ENE) 21:23:18 435.000/436.395/437.385
M-CUBED/EXP-1 PRIME 02 Jul 21:20:13 21:23:08 31° 70° (ENE) 21:26:05 437.505
AO-85 02 Jul 21:24:51 21:30:00 43° 301° (WNW) 21:35:03 145.980
AAUSAT CUBESAT 2 02 Jul 21:27:13 21:31:23 82° 77° (ENE) 21:35:36 437.432
COMPASS 1 02 Jul 22:06:58 22:10:20 23° 264° (W) 22:13:44 437.405
AUBIESAT-1 02 Jul 22:10:49 22:13:59 47° 255° (WSW) 22:17:12 437.475
PRISM 02 Jul 22:13:15 22:17:15 60° 284° (WNW) 22:21:15 437.425
CUBEBUG 2 02 Jul 22:14:58 22:18:36 29° 263° (W) 22:22:20 437.445
ZACube-1 02 Jul 22:19:47 22:23:57 66° 259° (W) 22:28:14 437.345
Oscar 11 02 Jul 22:20:20 22:24:36 60° 260° (W) 22:28:54 145.826/435.025
HO-68 02 Jul 22:21:01 22:25:42 19° 265° (W) 22:30:26 435.675
DELFI C3 02 Jul 22:34:38 22:38:40 84° 77° (ENE) 22:42:43 145.870
FUNcube-1 02 Jul 22:34:53 22:38:53 44° 261° (W) 22:43:00 145.935
TIGRISAT 02 Jul 22:46:22 22:49:11 16° 95° (E) 22:51:58 435.000
RS-15 02 Jul 22:49:11 23:00:32 45° 253° (WSW) 23:11:40 29.354- 29.394
HUMSAT D 02 Jul 22:51:28 22:55:32 55° 76° (ENE) 22:59:40 437.325/437.525
UNISAT 6 02 Jul 22:52:35 22:56:01 20° 96° (E) 22:59:27 437.425
UWE-3 02 Jul 22:53:31 22:56:04 16° 266° (W) 22:58:38 435.000/436.395/437.385
Cosmos 2491 02 Jul 23:15:07 23:16:49 11° 79° (E) 23:18:31 435.465 / 435.565
ANTELSAT 02 Jul 23:31:10 23:35:49 58° 100° (E) 23:40:26 437.575/2403.000
50 SAT 02 Jul 23:35:36 23:37:40 14° 71° (ENE) 23:39:44 437.505
AISAT 02 Jul 23:44:12 23:47:34 22° 71° (ENE) 23:50:55 437.250
DX 1 02 Jul 23:47:45 23:50:32 17° 70° (ENE) 23:53:21 434.975-435.025
QB50P1 02 Jul 23:48:13 23:48:33 10° 94° (E) 23:48:51 145.935-145.965
POPSAT HIP 1 02 Jul 23:50:58 23:52:16 11° 94° (E) 23:53:33 437.405
ESTCUBE 1 02 Jul 23:58:43 00:03:08 55° 75° (ENE) 00:07:34 437.505/2401.250
DUCHIFAT 1 02 Jul 23:59:01 00:00:59 13° 95° (E) 00:02:56 145.980
YUBILEINY 03 Jul 00:00:07 00:08:35 48° 80° (E) 00:17:00 435.215
QB50P2 03 Jul 00:03:00 00:05:59 18° 96° (E) 00:08:57 145.880/145.840
POLYITAN 1 03 Jul 00:05:35 00:08:38 19° 96° (E) 00:11:40 437.675
Cosmos 2504 03 Jul 00:06:11 00:09:45 13° 67° (ENE) 00:13:15 435.465 / 435.565
CUBEBUG 1 03 Jul 00:17:07 00:21:23 58° 76° (ENE) 00:25:39 437.445
TIGRISAT 03 Jul 00:21:34 00:25:54 38° 286° (WNW) 00:30:14 435.000
UNISAT 6 03 Jul 00:28:35 00:32:39 30° 288° (WNW) 00:36:44 437.425
SO-50 03 Jul 00:31:14 00:35:35 40° 59° (ENE) 00:39:47 436.795
BUGSAT 1 03 Jul 00:34:25 00:36:44 14° 95° (E) 00:39:03 437.445
VELOX 1 03 Jul 00:37:52 00:42:17 84° 259° (W) 00:46:41 145.980
SPROUT 03 Jul 00:45:17 00:49:19 44° 75° (ENE) 00:53:21 437.525
UKube-1 03 Jul 00:52:54 00:57:12 87° 78° (ENE) 01:01:31 .
